This demonstration page uses our WeatherBlox Daily Observations layout. Learn more.

Left ArrowRight Arrow

41.12389, -100.76542

Hourly Observations for January 8, 2018

Temp ( °F °C ) Dew Point ( °F °C ) Humidity (%) Winds ( mph kmh ) Pressure ( in mb ) Visibility ( mi km ) Precip ( " mm )
12:53 am 00:53 Clear 23 -5 21 -6.1 92 92 WNW 6 9 30.16 1021 10 16 0.00 0.00
1:53 am 01:53 Clear 23 -5 20 -6.7 88 88 WNW 6 9 30.14 1021 10 16 0.00 0.00
2:53 am 02:53 Clear 22 -5.6 18 -7.8 85 85 Calm 30.14 1021 10 16 0.00 0.00
3:53 am 03:53 Clear 20 -6.7 17 -8.3 89 89 Calm 30.14 1021 10 16 0.00 0.00
4:29 am 04:29 Mostly Clear 20 -6.7 17 -8.3 89 89 W 6 9 30.30 1026 8 13 0.00 0.00
4:53 am 04:53 Clear 20 -6.7 17 -8.3 89 89 WNW 5 7 30.16 1021 10 16 0.00 0.00
5:53 am 05:53 Clear 20 -6.7 16 -8.9 85 85 NW 3 6 30.18 1022 10 16 0.00 0.00
6:53 am 06:53 Clear with Mist and Fog 21 -6.1 18 -7.8 88 88 Calm 30.19 1022 4 6 0.00 0.00
7:53 am 07:53 Clear 21 -6.1 18 -7.8 88 88 Calm 30.19 1022 7 11 0.00 0.00
8:53 am 08:53 Sunny 23 -5 18 -7.8 81 81 Calm 30.16 1021 10 16 0.00 0.00
9:53 am 09:53 Sunny 29 -1.7 27 -2.8 92 92 Calm 30.16 1021 10 16 0.00 0.00
10:53 am 10:53 Sunny 37 2.8 28 -2.2 70 70 W 5 7 30.15 1021 10 16 0.00 0.00
11:53 am 11:53 Sunny 40 4.4 28 -2.2 63 63 SW 6 9 30.12 1020 10 16 0.00 0.00
12:53 pm 12:53 Sunny 45 7.2 30 -1.1 56 56 SW 5 7 30.08 1019 10 16 0.00 0.00
1:53 pm 13:53 Sunny 48 8.9 32 0 54 54 SW 5 7 30.03 1017 10 16 0.00 0.00
2:53 pm 14:53 Sunny 50 10 32 0 50 50 WSW 5 7 30.02 1017 10 16 0.00 0.00
3:53 pm 15:53 Sunny 49 9.4 34 1.1 56 56 WNW 3 6 30.01 1016 10 16 0.00 0.00
4:53 pm 16:53 Sunny 44 6.7 33 0.6 65 65 Calm 30.01 1016 10 16 0.00 0.00
5:53 pm 17:53 Clear 37 2.8 31 -0.6 79 79 Calm 30.02 1017 10 16 0.00 0.00
6:53 pm 18:53 Clear 34 1.1 29 -1.7 82 82 Calm 30.02 1017 10 16 0.00 0.00
7:53 pm 19:53 Clear 32 0 28 -2.2 85 85 Calm 30.03 1017 10 16 0.00 0.00
8:53 pm 20:53 Clear 33 0.6 28 -2.2 82 82 Calm 30.02 1017 10 16 0.00 0.00
9:53 pm 21:53 Clear 38 3.3 29 -1.7 70 70 S 6 9 29.98 1015 10 16 0.00 0.00
10:53 pm 22:53 Clear 39 3.9 29 -1.7 67 67 ENE 6 9 29.95 1014 10 16 0.00 0.00
11:53 pm 23:53 Clear 41 5 28 -2.2 60 60 Calm 29.92 1013 10 16 0.00 0.00

Powered by AerisWeather